DW7733 Weather Reports


Display with metric or nautical units.
time (UTC)temp
F
wind
direction
speed
MPH
gust
MPH
rain 1hr
in
rain 24hr
in
rain mn
in
humidity
%
barometer
mb
20260508001536 46 43 4.0 6.0 0.00 0.00 0.00 66 1011.3
20260508000035 45 16 5.0 6.0 0.00 0.00 0.00 62 1011.3
20260507234535 46 33 6.0 8.0 0.00 0.00 0.00 61 1011.4
20260507233034 46 28 6.0 8.0 0.00 0.00 0.00 64 1011.2
20260507231541 46 29 7.0 9.0 0.00 0.00 0.00 61 1011.3
20260507230039 46 23 8.0 9.0 0.00 0.00 0.00 63 1011.2
20260507224532 46 33 7.0 8.0 0.00 0.00 0.00 62 1011.4
20260507223029 46 33 8.0 10.0 0.00 0.00 0.00 69 1011.4
20260507221529 46 19 9.0 10.0 0.00 0.00 0.00 67 1011.4
20260507220026 45 20 9.0 11.0 0.00 0.00 0.00 70 1011.4
20260507214524 45 18 7.0 9.0 0.00 0.00 0.00 73 1011.5
20260507213024 45 13 8.0 10.0 0.00 0.00 0.00 74 1011.3
20260507211534 45 19 9.0 11.0 0.00 0.00 0.00 73 1011.3
20260507210022 45 15 9.0 11.0 0.00 0.00 0.00 74 1011.4
20260507204523 45 15 10.0 11.0 0.00 0.00 0.00 74 1011.2
20260507203027 44 16 10.0 11.0 0.00 0.00 0.00 74 1011.2
20260507201520 44 13 10.0 14.0 0.00 0.00 0.00 75 1011.2
20260507200021 44 22 10.0 12.0 0.00 0.00 0.00 73 1011.3
20260507194518 44 28 11.0 12.0 0.00 0.00 0.00 77 1011.3
20260507193015 44 21 12.0 14.0 0.00 0.00 0.00 79 1011.5
20260507191515 44 13 12.0 14.0 0.00 0.00 0.00 78 1011.7
20260507190018 44 9 9.0 12.0 0.00 0.00 0.00 79 1011.6
20260507184514 44 1 10.0 12.0 0.00 0.00 0.00 75 1011.6
20260507183033 44 16 10.0 12.0 0.00 0.00 0.00 77 1011.6
20260507181513 44 358 8.0 10.0 0.00 0.00 0.00 74 1011.6
20260507180012 44 359 9.0 11.0 0.00 0.00 0.00 77 1011.7
20260507174512 45 1 6.0 7.0 0.00 0.00 0.00 74 1011.6
20260507173008 45 9 4.0 6.0 0.00 0.00 0.00 73 1011.8
20260507171507 45 26 6.0 7.0 0.00 0.00 0.00 75 1011.9
20260507170005 45 353 6.0 8.0 0.00 0.00 0.00 78 1012.1
20260507164506 44 358 6.0 7.0 0.00 0.00 0.00 76 1012.3
20260507163005 44 354 4.0 6.0 0.00 0.00 0.00 76 1012.3
20260507161505 44 5 5.0 6.0 0.00 0.00 0.00 76 1012.5
20260507160009 44 341 4.0 6.0 0.00 0.00 0.00 77 1012.5
20260507154503 44 359 3.0 6.0 0.00 0.00 0.00 79 1012.5
20260507153004 44 11 4.0 6.0 0.00 0.00 0.00 81 1012.5
20260507151503 44 347 4.0 5.0 0.00 0.00 0.00 80 1012.4
20260507150003 43 4 3.0 5.0 0.00 0.00 0.00 81 1012.4
20260507144600 43 353 3.0 4.0 0.00 0.00 0.00 82 1012.5
20260507143059 43 360 3.0 6.0 0.00 0.00 0.00 82 1012.5
20260507141601 43 352 1.0 4.0 0.00 0.00 0.00 80 1012.6
20260507140107 42 16 0.0 4.0 0.00 0.00 0.00 80 1012.7
20260507134558 42 356 2.0 4.0 0.00 0.00 0.00 80 1012.7
20260507133104 42 32 3.0 4.0 0.00 0.00 0.00 81 1012.8
20260507131557 42 25 1.0 2.0 0.00 0.00 0.00 80 1012.9
20260507130107 41 32 0.0 3.0 0.00 0.00 0.00 80 1012.8
20260507124633 40 40 0.0 2.0 0.00 0.00 0.00 81 1012.8
20260507123056 40 43 0.0 4.0 0.00 0.00 0.00 81 1012.9
20260507121555 39 53 1.0 6.0 0.00 0.00 0.00 80 1012.9
20260507120054 39 37 2.0 7.0 0.00 0.00 0.00 81 1012.8
20260507114610 38 40 1.0 7.0 0.00 0.00 0.00 80 1012.7
20260507113055 37 123 0.0 2.0 0.00 0.00 0.00 80 1012.4
20260507111551 37 134 0.0 1.0 0.00 0.00 0.00 82 1012.2
20260507110050 36 134 0.0 1.0 0.00 0.00 0.00 83 1012.0
20260507104555 35 143 0.0 2.0 0.00 0.00 0.00 84 1012.0
20260507103049 35 133 0.0 1.0 0.00 0.00 0.00 84 1011.9
20260507101550 35 136 0.0 1.0 0.00 0.00 0.00 85 1011.9
20260507100046 34 138 0.0 2.0 0.00 0.00 0.00 85 1011.9
20260507094544 35 138 0.0 1.0 0.00 0.00 0.00 84 1011.8
20260507093043 35 143 0.0 1.0 0.00 0.00 0.00 84 1012.0
20260507091544 35 143 0.0 1.0 0.00 0.00 0.00 83 1012.0
20260507090038 35 131 0.0 1.0 0.00 0.00 0.00 82 1011.9
20260507084535 36 134 0.0 1.0 0.00 0.00 0.00 80 1011.9
20260507083032 37 148 0.0 2.0 0.00 0.00 0.00 78 1012.0
20260507081530 37 136 0.0 1.0 0.00 0.00 0.00 76 1011.9
20260507080026 38 139 0.0 1.0 0.00 0.00 0.00 74 1011.9
20260507074525 39 148 0.0 2.0 0.00 0.00 0.00 73 1012.0
20260507073025 39 168 0.0 3.0 0.00 0.00 0.00 72 1012.0
20260507071521 39 134 0.0 4.0 0.00 0.00 0.00 70 1012.1
20260507070016 40 131 0.0 4.0 0.00 0.00 0.00 69 1012.5
20260507064513 41 63 0.0 5.0 0.00 0.00 0.00 67 1012.8
20260507063024 41 48 4.0 9.0 0.00 0.00 0.00 64 1012.8
20260507061510 41 49 5.0 9.0 0.00 0.00 0.00 66 1012.8
20260507060017 42 46 4.0 10.0 0.00 0.00 0.00 66 1012.7
20260507054503 43 57 3.0 14.0 0.00 0.00 0.00 67 1012.7
20260507053005 44 47 9.0 12.0 0.00 0.00 0.00 69 1012.7
20260507051501 43 37 6.0 8.0 0.00 0.00 0.00 70 1012.9
20260507044559 45 40 10.0 12.0 0.00 0.00 0.00 72 1012.8
20260507043056 45 25 10.0 11.0 0.00 0.00 0.00 74 1012.8
20260507041552 44 340 7.0 8.0 0.00 0.00 0.00 83 1012.7
20260507040048 42 81 0.0 1.0 0.00 0.00 0.00 74 1012.6
20260507034547 42 113 0.0 2.0 0.00 0.00 0.00 77 1012.7
20260507033047 41 127 0.0 0.0 0.00 0.00 0.00 78 1012.6
20260507031546 41 127 0.0 0.0 0.00 0.00 0.00 77 1012.7
20260507030046 41 127 0.0 0.0 0.00 0.00 0.00 78 1012.8
20260507024544 41 127 0.0 0.0 0.00 0.00 0.00 79 1012.7
20260507023043 42 127 0.0 0.0 0.00 0.00 0.00 78 1012.6
20260507021544 41 127 0.0 0.0 0.00 0.00 0.00 77 1012.7
20260507020044 41 127 0.0 0.0 0.00 0.00 0.00 81 1012.5
20260507014549 41 127 0.0 0.0 0.00 0.00 0.00 82 1012.7
20260507013050 41 127 0.0 0.0 0.00 0.00 0.00 79 1012.6
20260507011543 41 127 0.0 0.0 0.00 0.00 0.00 78 1012.6
20260507010053 41 127 0.0 0.0 0.00 0.00 0.00 79 1012.7
20260507004540 41 11 0.0 0.0 0.00 0.00 0.00 79 1012.8
20260507003039 42 12 0.0 0.0 0.00 0.00 0.00 78 1012.8